Voltar ao catálogo

COSMOS 252 DEB

AtivoLEO
NORAD 19309·DEBRIS·🇷🇺 Russia

Lançado Nov 1, 1968 de Baikonur Cosmodrome

Loading…

Próximas Passagens (próximas 24 horas)

TLE

AtualizadoSource: Space-Track

Época: Sep 14, 2026, 02:43 UTC

1 19309U 68097ES  26257.11380635 -.00000049  00000-0  25846-4 0  9994
2 19309  62.3802  93.9333 0886223 287.2193  63.3751 13.04586187682819

Acompanhe COSMOS 252 DEB em tempo real com AllMySat

Download on the App Store